GLD1974 TFFM-TFFA

Flight info

Callsign GLD1974
Flight time 0h 12m
Altitude 3000
Route SEDOG
Aircraft C172/L-SFG/C

Departure

Time 2026-05-04 20:54
Airport Marie-Galante Airport (TFFM)

Arrival

Time 2026-05-04 21:07
Airport La Désirade Airport (TFFA)
Time Latitude Longitude Altitude Speed Heading
2026-05-04 20:49 15.86920 -61.27227 21 ft 0 kts 164°
2026-05-04 20:51 15.86914 -61.27226 21 ft 2 kts 173°
2026-05-04 20:51 15.86896 -61.27223 21 ft 10 kts 155°
2026-05-04 20:51 15.86844 -61.27263 19 ft 10 kts 252°
2026-05-04 20:51 15.86825 -61.27345 18 ft 13 kts 257°
2026-05-04 20:52 15.86813 -61.27439 20 ft 9 kts 240°
2026-05-04 20:52 15.86811 -61.27404 19 ft 16 kts 78°
2026-05-04 20:52 15.86861 -61.27158 21 ft 53 kts 79°
2026-05-04 20:52 15.86945 -61.26733 70 ft 68 kts 82°
2026-05-04 20:53 15.87006 -61.26204 111 ft 81 kts 89°
2026-05-04 20:53 15.87075 -61.25575 167 ft 93 kts 89°
2026-05-04 20:53 15.87162 -61.24879 249 ft 99 kts 84°
2026-05-04 20:53 15.87459 -61.24204 356 ft 105 kts 66°
2026-05-04 20:54 15.87882 -61.23554 469 ft 113 kts 56°
2026-05-04 20:54 15.88531 -61.23027 573 ft 123 kts 33°
2026-05-04 20:54 15.89333 -61.22708 671 ft 122 kts 26°
2026-05-04 20:54 15.90135 -61.22426 773 ft 122 kts 26°
2026-05-04 20:55 15.90945 -61.22109 867 ft 128 kts 30°
2026-05-04 20:55 15.91796 -61.21835 954 ft 126 kts 25°
2026-05-04 20:55 15.92632 -61.21546 991 ft 129 kts 25°
2026-05-04 20:55 15.93487 -61.21233 994 ft 131 kts 26°
2026-05-04 20:56 15.94346 -61.20919 995 ft 130 kts 27°
2026-05-04 20:56 15.95217 -61.20592 997 ft 135 kts 26°
2026-05-04 20:56 15.96083 -61.20262 994 ft 133 kts 25°
2026-05-04 20:56 15.96945 -61.19909 991 ft 133 kts 26°
2026-05-04 20:57 15.97815 -61.19570 994 ft 133 kts 26°
2026-05-04 20:57 15.98696 -61.19257 995 ft 135 kts 25°
2026-05-04 20:57 15.99576 -61.18909 994 ft 136 kts 26°
2026-05-04 20:57 16.00457 -61.18562 995 ft 132 kts 25°
2026-05-04 20:58 16.01305 -61.18237 989 ft 132 kts 25°
2026-05-04 20:58 16.02168 -61.17903 988 ft 131 kts 27°
2026-05-04 20:58 16.03017 -61.17605 988 ft 126 kts 23°
2026-05-04 20:58 16.03829 -61.17263 991 ft 127 kts 27°
2026-05-04 20:59 16.04665 -61.16932 988 ft 129 kts 26°
2026-05-04 20:59 16.05507 -61.16635 988 ft 126 kts 25°
2026-05-04 20:59 16.06335 -61.16325 989 ft 127 kts 25°
2026-05-04 20:59 16.07166 -61.15999 992 ft 128 kts 27°
2026-05-04 21:00 16.08001 -61.15688 988 ft 129 kts 26°
2026-05-04 21:00 16.08849 -61.15396 991 ft 128 kts 26°
2026-05-04 21:00 16.09716 -61.15108 997 ft 133 kts 25°
2026-05-04 21:00 16.10603 -61.14776 993 ft 135 kts 27°
2026-05-04 21:01 16.11434 -61.14502 994 ft 124 kts 25°
2026-05-04 21:01 16.12275 -61.14253 995 ft 127 kts 24°
2026-05-04 21:01 16.13131 -61.13962 994 ft 130 kts 25°
2026-05-04 21:01 16.13992 -61.13658 992 ft 131 kts 26°
2026-05-04 21:02 16.14861 -61.13348 994 ft 133 kts 26°
2026-05-04 21:02 16.15738 -61.13033 993 ft 134 kts 26°
2026-05-04 21:02 16.16609 -61.12734 991 ft 132 kts 25°
2026-05-04 21:02 16.17484 -61.12431 1000 ft 133 kts 25°
2026-05-04 21:03 16.18376 -61.12110 993 ft 137 kts 25°
2026-05-04 21:03 16.19281 -61.11805 997 ft 136 kts 25°
2026-05-04 21:03 16.20192 -61.11519 996 ft 136 kts 25°
2026-05-04 21:03 16.21088 -61.11220 992 ft 134 kts 25°
2026-05-04 21:04 16.21962 -61.10926 989 ft 130 kts 25°
2026-05-04 21:04 16.22803 -61.10623 994 ft 126 kts 25°
2026-05-04 21:04 16.23623 -61.10313 991 ft 128 kts 26°
2026-05-04 21:04 16.24465 -61.10006 989 ft 126 kts 26°
2026-05-04 21:05 16.25296 -61.09720 924 ft 123 kts 26°
2026-05-04 21:05 16.26075 -61.09476 801 ft 113 kts 18°
2026-05-04 21:05 16.26803 -61.09408 658 ft 96 kts
2026-05-04 21:05 16.27423 -61.09473 513 ft 86 kts
2026-05-04 21:06 16.27976 -61.09569 404 ft 75 kts 358°
2026-05-04 21:06 16.28543 -61.09585 313 ft 85 kts
2026-05-04 21:06 16.29103 -61.09520 179 ft 76 kts 28°
2026-05-04 21:06 16.29443 -61.09207 71 ft 60 kts 74°
2026-05-04 21:07 16.29585 -61.08808 27 ft 57 kts 78°
2026-05-04 21:07 16.29695 -61.08459 14 ft 32 kts 67°
2026-05-04 21:07 16.29722 -61.08388 15 ft 1 kts 345°
2026-05-04 21:07 16.29712 -61.08421 14 ft 9 kts 244°
2026-05-04 21:08 16.29681 -61.08508 14 ft 17 kts 252°
2026-05-04 21:08 16.29644 -61.08621 16 ft 16 kts 254°
2026-05-04 21:08 16.29651 -61.08678 16 ft 6 kts 355°
2026-05-04 21:08 16.29668 -61.08686 16 ft 0 kts 306°
2026-05-04 21:09 16.29673 -61.08704 16 ft 3 kts 317°
2026-05-04 21:09 16.29680 -61.08701 16 ft 0 kts 93°